Voltar ao catálogo

STARLINK-33952

AtivoComunicaçõesVLEO
NORAD 64046·PAYLOAD·🇺🇸 United States

Lançado May 16, 2025 de Vandenberg Space Force Base

Loading…

Próximas Passagens (próximas 24 horas)

TLE

AtualizadoSource: CelesTrak SupGP

Época: Sep 15, 2026, 03:50 UTC

1 64046C 25102AA  26258.16020833  .00091793  00000+0  31924-2 0  2583
2 64046  70.0008 355.2380 0003435 268.6617 335.1445 15.29540553    19

Acompanhe STARLINK-33952 em tempo real com AllMySat

Download on the App Store